Location: Alpha Ridge Park
(39.3209°N, 76.9128°W)
Time: 10:17:51
(UTC-04:00)

S-56A Canister/Altair - Pass Details

Date: 24 May 2019
Orbit: 633 x 2499 km, 38.9° (Epoch: 25 June)

Event Time Altitude Azimuth Distance (km) Brightness Sun altitude
Rises 03:38:00 0° 259° (W) 3,519 - -20.0°
Reaches altitude 10° 03:40:10 10° 259° (W) 2,749 - -19.8°
Exits shadow 03:42:04 23° 258° (WSW) 2,124 9.3 -19.6°
Maximum altitude 03:46:53 85° 172° (S) 1,314 8.6 -19.0°
Drops below altitude 10° 03:57:24 10° 86° (E) 4,168 11.9 -17.6°
Sets 04:01:25 0° 86° (E) 5,441 12.6 -17.1°
